sat.trackr.live / text

‹ back to catalog

STARLINK-33998

NORAD 63951 · 2025-098AB

PAYLOAD ACTIVE UNKNOWN

§ Identity

Operator
Country
US
Launch date
2025-05-13
Launch site
AFWTR
Launch vehicle
Mass (kg)
RCS (m²)

Purposes: comms

External: N2YO · Heavens-Above · Gunter

§ Orbital elements

Epoch: 2026-05-25T02:59:32.040096Z

Period
96.11 min
Inclination
70.0009°
Eccentricity
0.0003584
Mean motion
14.98339403 rev/d
Perigee alt
569.5 km
Apogee alt
574.5 km
Semi-major
6,950.2 km
B*
2.6123e-4
RAAN
81.6562°
Arg perigee
257.3723°
Mean anomaly
102.7035°
Rev number
5,800

§ Raw data

STARLINK-339981 63951U 25098AB  26145.12467639  .00003026  00000+0  26123-3 0  99912 63951  70.0009  81.6562 0003584 257.3723 102.7035 14.98339403 58004

JSON: /api/v1/satellites/63951 · /tle

For live sub-satellite position, see the globe view (requires WebGL).

§ Visibility from observer

Set your observer location to see the next 7 days of passes ≥ 10°. The values pass through the URL so the page stays shareable.

No JS? Fill the form by hand. The geolocation button needs JavaScript.